Date String (YYYY-MM-DD hh:mm:ss) UTC,Instrument flags,Ambient pressure (hPa),Sample flow (lpm),Bypass flow (lpm),Sample temperature (°C),Ambient temperature (°C),ASC tube jacket temperature (°C),LED temperature (°C),Box temperature (°C),Sample RH (%),Span deviation,Mass concentration (μg/m³),Mass concentration (μg/m³),Mass concentration (μg/m³)
DateTimeUTC,F1_M11,P_M11,Q1_M11,Q2_M11,T1_M11,T2_M11,T3_M11,T4_M11,T5_M11,U1_M11,ZSPAN_M11,X0_M11,X2_M11,X1_M11
2022-01-06 15:00:00,,0825.4,5.01,0.00,22.1,21.5,00.0,31.0,23.6,04.3,0003.1,0009.16,0005.49,0004.93
2022-01-06 15:01:00,,0825.5,5.00,0.00,22.0,21.2,00.0,31.0,23.5,04.4,0002.9,0009.16,0005.46,0004.91
2022-01-06 15:02:00,,0825.4,4.99,0.00,21.9,20.9,00.0,31.0,23.4,04.4,0002.9,0009.54,0005.47,0004.90
2022-01-06 15:03:00,,0825.5,5.02,0.00,21.8,20.9,00.0,31.0,23.3,04.4,0002.9,0009.66,0005.49,0004.89
2022-01-06 15:04:00,,0825.5,5.00,0.00,21.9,21.9,00.0,31.0,23.6,04.4,0002.7,0009.67,0005.49,0004.87
2022-01-06 15:05:00,,0825.4,5.01,0.00,22.1,22.7,00.0,31.0,23.9,04.4,0002.8,0009.72,0005.53,0004.88
2022-01-06 15:06:00,,0825.4,4.99,0.00,22.2,22.8,00.0,31.1,24.1,04.4,0002.8,0009.79,0005.57,0004.90
2022-01-06 15:07:00,,0825.4,5.00,0.00,22.2,22.3,00.0,31.1,24.0,04.4,0002.5,0009.88,0005.62,0004.93
2022-01-06 15:08:00,,0825.4,5.00,0.00,22.1,21.7,00.0,31.1,23.8,04.4,0002.0,0009.94,0005.67,0004.96
2022-01-06 15:09:00,,0825.5,5.00,0.00,22.1,21.3,00.0,31.0,23.6,04.5,0001.6,0009.96,0005.68,0004.97
2022-01-06 15:10:00,,0825.5,5.01,0.00,22.0,21.0,00.0,31.0,23.5,04.5,0001.7,0010.01,0005.70,0004.98
2022-01-06 15:11:00,,0825.4,4.99,0.00,21.9,20.7,00.0,31.0,23.3,04.5,0001.5,0009.99,0005.69,0004.98
2022-01-06 15:12:00,,0825.3,5.01,0.00,21.8,20.5,00.0,30.9,23.3,04.6,0001.3,0009.88,0005.68,0004.99
2022-01-06 15:13:00,,0825.3,5.00,0.00,21.8,21.1,00.0,30.9,23.3,04.6,0000.7,0009.58,0005.69,0005.00
2022-01-06 15:14:00,,0825.4,4.99,0.00,21.9,22.0,00.0,31.0,23.6,04.6,0000.8,0009.49,0005.68,0004.98
2022-01-06 15:15:00,,0825.3,4.99,0.00,22.1,22.9,00.0,31.0,24.0,04.5,0000.9,0009.48,0005.67,0004.96
2022-01-06 15:16:00,,0825.3,5.01,0.00,22.2,23.0,00.0,31.1,24.1,04.5,0000.9,0009.40,0005.62,0004.93
2022-01-06 15:17:00,,0825.4,4.99,0.00,22.2,22.3,00.0,31.1,23.9,04.5,0001.2,0009.30,0005.57,0004.90
2022-01-06 15:18:00,,0825.4,5.02,0.00,22.1,21.8,00.0,31.0,23.7,04.5,0001.5,0009.26,0005.55,0004.88
2022-01-06 15:19:00,,0825.4,4.99,0.00,22.0,21.4,00.0,31.0,23.5,04.5,0001.4,0009.18,0005.50,0004.84
2022-01-06 15:20:00,,0825.4,5.02,0.00,21.9,21.1,00.0,31.0,23.4,04.6,0001.7,0009.07,0005.44,0004.81
2022-01-06 15:21:00,,0825.4,4.99,0.00,21.9,20.7,00.0,31.0,23.3,04.6,0002.1,0009.09,0005.43,0004.79
2022-01-06 15:22:00,,0825.4,5.00,0.00,21.8,20.5,00.0,30.9,23.3,04.6,0002.1,0009.09,0005.42,0004.78
2022-01-06 15:23:00,,0825.4,5.01,0.00,21.8,21.1,00.0,30.9,23.3,04.7,0002.2,0009.09,0005.40,0004.75
2022-01-06 15:24:00,,0825.3,4.99,0.00,21.9,22.1,00.0,31.0,23.6,04.7,0002.6,0008.99,0005.35,0004.73
2022-01-06 15:25:00,,0825.3,5.00,0.00,22.1,22.9,00.0,31.0,23.9,04.6,0002.6,0009.32,0005.33,0004.72
2022-01-06 15:26:00,,0825.4,4.99,0.00,22.1,22.6,00.0,31.0,24.0,04.6,0002.2,0009.38,0005.33,0004.72
2022-01-06 15:27:00,,0825.3,4.99,0.00,22.1,22.1,00.0,31.0,23.8,04.6,0001.5,0009.41,0005.33,0004.72
2022-01-06 15:28:00,,0825.3,5.01,0.00,22.0,21.5,00.0,31.0,23.7,04.6,0001.6,0009.49,0005.37,0004.73
2022-01-06 15:29:00,,0825.3,4.99,0.00,21.9,21.1,00.0,31.0,23.4,04.7,0001.4,0009.62,0005.35,0004.74
2022-01-06 15:30:00,,0825.4,5.01,0.00,21.8,20.7,00.0,30.9,23.2,04.7,0001.5,0009.58,0005.35,0004.75
2022-01-06 15:31:00,,0825.3,4.98,0.00,21.7,20.5,00.0,30.9,23.1,04.7,0000.9,0009.58,0005.37,0004.77
2022-01-06 15:32:00,,0825.3,5.00,0.00,21.7,20.9,00.0,30.9,23.2,04.7,0000.6,0009.51,0005.34,0004.76
2022-01-06 15:33:00,,0825.4,5.00,0.00,21.8,21.9,00.0,30.9,23.4,04.7,0000.6,0009.56,0005.36,0004.76
2022-01-06 15:34:00,,0825.4,5.01,0.00,22.0,22.7,00.0,31.0,23.8,04.7,0000.7,0009.67,0005.42,0004.80
2022-01-06 15:35:00,,0825.4,5.01,0.00,22.1,22.5,00.0,31.0,23.9,04.7,0000.4,0009.76,0005.45,0004.81
2022-01-06 15:36:00,,0825.4,5.00,0.00,22.0,22.0,00.0,31.0,23.8,04.7,0000.2,0009.37,0005.45,0004.82
2022-01-06 15:37:00,,0825.3,4.99,0.00,22.0,21.5,00.0,31.0,23.6,04.7,0000.4,0009.37,0005.45,0004.84
2022-01-06 15:38:00,,0825.3,5.02,0.00,21.9,21.1,00.0,30.9,23.4,04.7,0001.4,0009.34,0005.46,0004.85
2022-01-06 15:39:00,,0825.3,5.00,0.00,21.8,20.7,00.0,30.9,23.3,04.7,0001.4,0009.53,0005.51,0004.88
2022-01-06 15:40:00,,0825.3,4.99,0.00,21.7,20.5,00.0,30.8,23.2,04.8,0000.8,0009.46,0005.54,0004.89
2022-01-06 15:41:00,,0825.2,5.01,0.00,21.7,20.4,00.0,30.8,23.1,04.8,0000.6,0009.47,0005.55,0004.88
2022-01-06 15:42:00,,0825.1,4.99,0.00,21.7,21.2,00.0,30.8,23.3,04.8,0000.9,0009.51,0005.55,0004.88
2022-01-06 15:43:00,,0825.3,5.00,0.00,21.8,22.2,00.0,30.9,23.6,04.7,0001.0,0009.54,0005.59,0004.90
2022-01-06 15:44:00,,0825.3,4.99,0.00,22.0,23.0,00.0,30.9,23.9,04.7,0001.1,0009.60,0005.62,0004.92
2022-01-06 15:45:00,,0825.3,5.00,0.00,22.1,22.9,00.0,31.0,24.0,04.7,0000.6,0009.61,0005.63,0004.93
2022-01-06 15:46:00,,0825.3,5.00,0.00,22.1,22.3,00.0,31.0,23.8,04.7,0001.1,0009.59,0005.64,0004.95
2022-01-06 15:47:00,,0825.3,5.00,0.00,22.0,21.7,00.0,30.9,23.7,04.7,0001.3,0009.63,0005.67,0004.97
2022-01-06 15:48:00,,0825.3,5.00,0.00,22.0,21.3,00.0,30.9,23.5,04.7,0001.1,0009.57,0005.67,0004.98
2022-01-06 15:49:00,,0825.3,5.00,0.00,21.9,21.0,00.0,30.9,23.4,04.8,0001.4,0009.63,0005.69,0004.99
2022-01-06 15:50:00,,0825.4,5.01,0.00,21.8,20.8,00.0,30.9,23.3,04.8,0001.7,0009.50,0005.67,0004.99
2022-01-06 15:51:00,,0825.5,4.98,0.00,21.8,20.6,00.0,30.9,23.3,04.8,0001.9,0009.48,0005.67,0005.00
2022-01-06 15:52:00,,0825.5,5.01,0.00,21.7,20.6,00.0,30.8,23.3,04.8,0002.4,0009.46,0005.67,0005.02
2022-01-06 15:53:00,,0825.4,5.00,0.00,21.8,21.2,00.0,30.9,23.4,04.9,0002.2,0009.52,0005.70,0005.04
2022-01-06 15:54:00,,0825.4,5.01,0.00,21.9,22.2,00.0,30.9,23.7,04.9,0002.4,0009.49,0005.70,0005.07
2022-01-06 15:55:00,,0825.5,5.00,0.00,22.1,22.9,00.0,31.0,24.0,04.8,0002.6,0009.39,0005.68,0005.09
2022-01-06 15:56:00,,0825.5,5.00,0.00,22.1,22.6,00.0,31.0,24.0,04.8,0002.8,0009.39,0005.69,0005.10
2022-01-06 15:57:00,,0825.3,5.01,0.00,22.1,22.0,00.0,31.0,23.8,04.8,0002.8,0009.47,0005.71,0005.11
2022-01-06 15:58:00,,0825.4,4.99,0.00,22.0,21.5,00.0,30.9,23.6,04.8,0002.5,0009.52,0005.74,0005.13
2022-01-06 15:59:00,,0825.4,5.00,0.00,21.9,21.0,00.0,30.9,23.4,04.8,0002.7,0009.58,0005.77,0005.15
